Torna al catalogo

YAOGAN 29 DEB

AttivoMilitareSSO
NORAD 42673·DEBRIS·🇨🇳 China

Lanciato Nov 26, 2015 da Taiyuan Satellite Launch Center

Loading…

Prossimi Passaggi (prossime 24 ore)

TLE

AggiornatoSource: Space-Track

Epoca: Sep 14, 2026, 21:49 UTC

1 42673U 15069F   26257.90970777  .00000843  00000-0  90223-4 0  9996
2 42673  97.8691 293.5103 0004700  79.2182 280.9565 14.91333098585359

Traccia YAOGAN 29 DEB in tempo reale con AllMySat

Download on the App Store